Location: Unspecified
(52.4292°N, 19.3359°E)
Time: 23:17:38
(UTC+02:00)

Altair - Pass Details

Date: 20 May 2024
Orbit: 1502 x 1682 km, 47.2° (Epoch: 19 June)

Event Time Altitude Azimuth Distance (km) Brightness Sun altitude
Rises 17:13:12 0° 285° (WNW) 4,933 11.2 28.9°
Reaches altitude 10° 17:16:38 10° 278° (W) 3,948 11.2 28.4°
Maximum altitude 17:25:40 39° 215° (SW) 2,350 9.3 27.0°
Drops below altitude 10° 17:34:36 10° 152° (SSE) 3,892 9.4 25.6°
Sets 17:37:58 0° 145° (SE) 4,857 9.8 25.1°
